"Pseudo-MPEC" for iMB3713

Created 2019 Nov 9 5:07:27 UT using Find_Orb

Click here for an explanation of pseudo-MPECs

 
 Astrometry: 
     iMB3713  C2019 11 04Nei_MuAstrometryI1redacted;wUcKsoSTJPM\LQGuLPEO\w#GfJ43
     iMB3713  C2019 11 04Na5wM2,68%`E4click0OaF!8mPwuGYLKZ8g/T`'imq[LW`AV!g1mJ43
     iMB3713  C2019 11 04Zbhere227Ykd^LV50\O7%Bc`I@gcbwe).2dJDforvXAZpG6P\!32J43
     iMB3713  C2019 11 04l8.US1vtu8q:AYL_^K5]14SX$^o%qexplanation'rci'!#6PoaDJ43

Station data:
(J43) Oukaïmeden Observatory, Marrakech  (N31.206440 W7.866460)  Morocco.
   Observer C. Rinner. Measurers C. Rinner, M. Ory. 0.5-m f/3 reflector + CCD.

Orbital elements:  iMB3713
   Perihelion 2020 Jan 9.407698 +/- 45.9 TT =  9:47:05 (JD 2458857.907698)
Epoch 2019 Nov  4.0 TT = JDT 2458791.5   Earth MOID: 0.3794   Ma: 0.0357
M 343.74718651 +/- 22               (J2000 ecliptic)          AutoNEOCP
n   0.24474291 +/- 0.261            Peri.  236.81552 +/- 60
a   2.53121653 +/- 1.8              Node   219.76518 +/- 49
e   0.4879293 +/- 0.247             Incl.   14.79593 +/- 7
P   4.03                   H 21.0   G  0.15   U 11.8  SR
q 1.29616160 +/- 0.409    Q 3.76627145 +/- 27.9
From 4 observations 2019 Nov. 4 (36.7 min); mean residual 0".36
Residuals in arcseconds: 
191104 J43  .09-  .08+    191104 J43  .55-  .53+    
191104 J43  .41+  .39-    191104 J43  .24+  .23-    

Ephemerides (geocentric):
Date (UTC) HH   RA              Dec         delta   r     elong  mag " sig PA
---- -- -- --  -------------   -----------  ------ ------ -----  --- ---- ---
2019 11 09 05  03 50 17.562   +11 33 29.54  .46180 1.4426 165.7 20.8  45d   6
2019 11 09 06  03 50 18.186   +11 32 01.57  .46159 1.4424 165.7 20.8  45d   6
2019 11 09 07  03 50 18.807   +11 30 33.55  .46139 1.4422 165.7 20.8  45d   6
2019 11 09 08  03 50 19.427   +11 29 05.45  .46119 1.4420 165.7 20.8  45d   6
2019 11 09 09  03 50 20.045   +11 27 37.30  .46098 1.4418 165.7 20.8  45d   6
2019 11 09 10  03 50 20.661   +11 26 09.08  .46078 1.4417 165.8 20.8  45d   5
2019 11 09 11  03 50 21.275   +11 24 40.81  .46057 1.4415 165.8 20.8  45d   5
2019 11 09 12  03 50 21.886   +11 23 12.46  .46037 1.4413 165.8 20.8  45d   5
2019 11 09 13  03 50 22.497   +11 21 44.06  .46017 1.4411 165.8 20.8  45d   5
2019 11 09 14  03 50 23.105   +11 20 15.59  .45997 1.4409 165.9 20.8  45d   5
2019 11 09 15  03 50 23.711   +11 18 47.07  .45976 1.4408 165.9 20.8  45d   5
2019 11 09 16  03 50 24.315   +11 17 18.48  .45956 1.4406 165.9 20.8  45d   5
2019 11 09 17  03 50 24.917   +11 15 49.83  .45936 1.4404 165.9 20.8  45d   5
2019 11 09 18  03 50 25.518   +11 14 21.12  .45916 1.4402 165.9 20.8  45d   5
2019 11 09 19  03 50 26.117   +11 12 52.34  .45896 1.4400 166.0 20.8  45d   5
2019 11 09 20  03 50 26.713   +11 11 23.51  .45876 1.4398 166.0 20.8  45d   5
2019 11 09 21  03 50 27.308   +11 09 54.61  .45856 1.4397 166.0 20.8  45d   5
2019 11 09 22  03 50 27.901   +11 08 25.66  .45836 1.4395 166.0 20.8  45d   5
2019 11 09 23  03 50 28.492   +11 06 56.64  .45816 1.4393 166.0 20.7  46d   5
2019 11 10 00  03 50 29.081   +11 05 27.56  .45796 1.4391 166.1 20.7  46d   5
2019 11 10 01  03 50 29.668   +11 03 58.42  .45776 1.4389 166.1 20.7  46d   5
2019 11 10 02  03 50 30.254   +11 02 29.23  .45756 1.4388 166.1 20.7  46d   5
2019 11 10 03  03 50 30.837   +11 00 59.97  .45737 1.4386 166.1 20.7  46d   5
2019 11 10 04  03 50 31.419   +10 59 30.65  .45717 1.4384 166.1 20.7  46d   6
2019 11 10 05  03 50 31.999   +10 58 01.27  .45697 1.4382 166.1 20.7  46d   6
2019 11 10 06  03 50 32.576   +10 56 31.83  .45677 1.4380 166.2 20.7  46d   6
2019 11 10 07  03 50 33.153   +10 55 02.34  .45658 1.4379 166.2 20.7  47d   7
2019 11 10 08  03 50 33.727   +10 53 32.78  .45638 1.4377 166.2 20.7  47d   7
2019 11 10 09  03 50 34.299   +10 52 03.17  .45619 1.4375 166.2 20.7  47d   7
2019 11 10 10  03 50 34.870   +10 50 33.49  .45599 1.4373 166.2 20.7  48d   7
2019 11 10 11  03 50 35.438   +10 49 03.76  .45579 1.4371 166.3 20.7  48d   7
2019 11 10 12  03 50 36.005   +10 47 33.96  .45560 1.4370 166.3 20.7  48d   7
2019 11 10 13  03 50 36.570   +10 46 04.11  .45541 1.4368 166.3 20.7  48d   7
2019 11 10 14  03 50 37.134   +10 44 34.20  .45521 1.4366 166.3 20.7  48d   6
2019 11 10 15  03 50 37.695   +10 43 04.24  .45502 1.4364 166.3 20.7  48d   6
2019 11 10 16  03 50 38.255   +10 41 34.21  .45482 1.4362 166.3 20.7  48d   6
2019 11 10 17  03 50 38.813   +10 40 04.13  .45463 1.4361 166.4 20.7  48d   6
2019 11 10 18  03 50 39.369   +10 38 33.98  .45444 1.4359 166.4 20.7  48d   6
2019 11 10 19  03 50 39.923   +10 37 03.78  .45425 1.4357 166.4 20.7  48d   6
2019 11 10 20  03 50 40.475   +10 35 33.53  .45405 1.4355 166.4 20.7  48d   6
2019 11 10 21  03 50 41.026   +10 34 03.21  .45386 1.4353 166.4 20.7  49d   6
2019 11 10 22  03 50 41.575   +10 32 32.84  .45367 1.4352 166.4 20.7  49d   6
2019 11 10 23  03 50 42.122   +10 31 02.41  .45348 1.4350 166.5 20.7  49d   6
2019 11 11 00  03 50 42.667   +10 29 31.93  .45329 1.4348 166.5 20.7  49d   6
2019 11 11 01  03 50 43.211   +10 28 01.38  .45310 1.4346 166.5 20.7  49d   6
2019 11 11 02  03 50 43.752   +10 26 30.78  .45291 1.4345 166.5 20.7  49d   6
2019 11 11 03  03 50 44.292   +10 25 00.13  .45272 1.4343 166.5 20.7  49d   6
2019 11 11 04  03 50 44.831   +10 23 29.42  .45253 1.4341 166.5 20.7  49d   6